Time,TemperatureF,DewpointF,PressureIn,WindDirection,WindDirectionDegrees,WindSpeedMPH,WindSpeedGustMPH,Humidity,HourlyPrecipIn,Conditions,Clouds,dailyrainin,SoftwareType,DateUTC
2013-01-21 00:03:00,36.4,33.5,30.09,WNW,292,0.0,0.0,89,0.00,,---,0.00,VWS V14.01,2013-01-21 06:03:00,
2013-01-21 00:08:00,36.4,33.5,30.09,WNW,292,0.0,0.0,89,0.00,,---,0.00,VWS V14.01,2013-01-21 06:08:00,
2013-01-21 00:13:00,36.2,33.0,30.09,WNW,292,0.0,0.0,88,0.00,,---,0.00,VWS V14.01,2013-01-21 06:13:00,
2013-01-21 00:18:00,36.2,33.0,30.09,WNW,292,0.0,0.0,88,0.00,,---,0.00,VWS V14.01,2013-01-21 06:18:00,
2013-01-21 00:23:00,36.1,33.1,30.09,WNW,292,0.0,0.0,89,0.00,,---,0.00,VWS V14.01,2013-01-21 06:23:00,
2013-01-21 00:28:00,36.1,33.1,30.09,WNW,292,0.0,0.0,89,0.00,,---,0.00,VWS V14.01,2013-01-21 06:28:00,
2013-01-21 00:33:00,35.9,33.0,30.09,WNW,292,0.0,0.0,89,0.00,,---,0.00,VWS V14.01,2013-01-21 06:33:00,
2013-01-21 00:38:00,35.9,32.7,30.09,WNW,292,0.0,0.0,88,0.00,,---,0.00,VWS V14.01,2013-01-21 06:38:00,
2013-01-21 00:43:00,35.9,33.0,30.09,WNW,292,0.0,0.0,89,0.00,,---,0.00,VWS V14.01,2013-01-21 06:43:00,
2013-01-21 00:48:00,35.7,32.8,30.09,West,270,0.0,0.0,89,0.00,,---,0.00,VWS V14.01,2013-01-21 06:48:00,
2013-01-21 00:53:00,35.5,32.6,30.09,West,270,0.0,0.0,89,0.00,,---,0.00,VWS V14.01,2013-01-21 06:53:00,
2013-01-21 00:58:00,35.5,32.6,30.09,West,270,0.0,0.0,89,0.00,,---,0.00,VWS V14.01,2013-01-21 06:58:00,
2013-01-21 01:03:00,35.5,32.6,30.09,West,270,0.0,0.0,89,0.00,,---,0.00,VWS V14.01,2013-01-21 07:03:00,
2013-01-21 01:08:00,35.3,32.4,30.09,West,270,0.0,0.0,89,0.00,,---,0.00,VWS V14.01,2013-01-21 07:08:00,
2013-01-21 01:13:00,35.3,32.4,30.09,West,270,0.0,0.0,89,0.00,,---,0.00,VWS V14.01,2013-01-21 07:13:00,
2013-01-21 01:18:00,35.3,32.4,30.09,West,270,0.0,0.0,89,0.00,,---,0.00,VWS V14.01,2013-01-21 07:18:00,
2013-01-21 01:23:00,35.2,32.2,30.09,West,270,0.0,0.0,89,0.00,,---,0.00,VWS V14.01,2013-01-21 07:23:00,
2013-01-21 01:28:00,35.2,32.2,30.09,West,270,0.0,0.0,89,0.00,,---,0.00,VWS V14.01,2013-01-21 07:28:00,
2013-01-21 01:33:00,35.0,32.1,30.09,West,270,0.0,0.0,89,0.00,,---,0.00,VWS V14.01,2013-01-21 07:33:00,
2013-01-21 01:38:00,35.0,32.1,30.09,West,270,0.0,0.0,89,0.00,,---,0.00,VWS V14.01,2013-01-21 07:38:00,
2013-01-21 01:43:00,35.0,32.1,30.09,West,270,0.0,0.0,89,0.00,,---,0.00,VWS V14.01,2013-01-21 07:43:00,
2013-01-21 01:48:00,34.8,31.9,30.09,West,270,0.0,0.0,89,0.00,,---,0.00,VWS V14.01,2013-01-21 07:48:00,
2013-01-21 01:53:00,34.8,31.9,30.09,West,270,0.0,0.0,89,0.00,,---,0.00,VWS V14.01,2013-01-21 07:53:00,
2013-01-21 01:58:00,34.8,31.9,30.09,West,270,0.0,0.0,89,0.00,,---,0.00,VWS V14.01,2013-01-21 07:58:00,
2013-01-21 02:03:00,34.6,32.0,30.09,West,270,0.0,0.0,90,0.00,,---,0.00,VWS V14.01,2013-01-21 08:03:00,
2013-01-21 02:08:00,34.6,31.7,30.09,West,270,0.0,0.0,89,0.00,,---,0.00,VWS V14.01,2013-01-21 08:08:00,
2013-01-21 02:14:00,34.6,32.0,30.09,West,270,0.0,0.0,90,0.00,,---,0.00,VWS V14.01,2013-01-21 08:14:00,
2013-01-21 02:19:00,34.4,31.5,30.09,West,270,0.0,0.0,89,0.00,,---,0.00,VWS V14.01,2013-01-21 08:19:00,
2013-01-21 02:24:00,34.4,31.8,30.09,West,270,0.0,0.0,90,0.00,,---,0.00,VWS V14.01,2013-01-21 08:24:00,
2013-01-21 02:29:00,34.4,31.8,30.09,West,270,0.0,0.0,90,0.00,,---,0.00,VWS V14.01,2013-01-21 08:29:00,
2013-01-21 02:34:00,34.4,31.8,30.09,West,270,0.0,0.0,90,0.00,,---,0.00,VWS V14.01,2013-01-21 08:34:00,
2013-01-21 02:39:00,34.3,31.6,30.09,West,270,0.0,0.0,90,0.00,,---,0.00,VWS V14.01,2013-01-21 08:39:00,
2013-01-21 02:44:00,34.3,31.6,30.09,West,270,0.0,0.0,90,0.00,,---,0.00,VWS V14.01,2013-01-21 08:44:00,
2013-01-21 02:49:00,34.1,31.5,30.09,West,270,0.0,0.0,90,0.00,,---,0.00,VWS V14.01,2013-01-21 08:49:00,
2013-01-21 02:54:00,34.1,31.5,30.09,West,270,0.0,0.0,90,0.00,,---,0.00,VWS V14.01,2013-01-21 08:54:00,
2013-01-21 02:59:00,34.1,31.5,30.09,WNW,292,0.0,0.0,90,0.00,,---,0.00,VWS V14.01,2013-01-21 08:59:00,
2013-01-21 03:04:00,33.9,31.3,30.09,WNW,292,0.0,0.0,90,0.00,,---,0.00,VWS V14.01,2013-01-21 09:04:00,
2013-01-21 03:09:00,33.9,31.3,30.09,WNW,292,0.0,0.0,90,0.00,,---,0.00,VWS V14.01,2013-01-21 09:09:00,
2013-01-21 03:14:00,33.9,31.3,30.09,WNW,292,0.0,0.0,90,0.00,,---,0.00,VWS V14.01,2013-01-21 09:14:00,
2013-01-21 03:19:00,33.7,31.1,30.09,WNW,292,0.0,0.0,90,0.00,,---,0.00,VWS V14.01,2013-01-21 09:19:00,
2013-01-21 03:24:00,33.7,31.4,30.09,WNW,292,0.0,0.0,91,0.00,,---,0.00,VWS V14.01,2013-01-21 09:24:00,
2013-01-21 03:29:00,33.7,31.4,30.09,WNW,292,0.0,0.0,91,0.00,,---,0.00,VWS V14.01,2013-01-21 09:29:00,
2013-01-21 03:34:00,33.7,31.4,30.09,WNW,292,0.0,0.0,91,0.00,,---,0.00,VWS V14.01,2013-01-21 09:34:00,
2013-01-21 03:39:00,33.5,30.9,30.09,WNW,292,0.0,0.0,90,0.00,,---,0.00,VWS V14.01,2013-01-21 09:39:00,
2013-01-21 03:44:00,33.5,30.9,30.09,WNW,292,0.0,0.0,90,0.00,,---,0.00,VWS V14.01,2013-01-21 09:44:00,
2013-01-21 03:49:00,33.5,31.2,30.09,WNW,292,0.0,0.0,91,0.00,,---,0.00,VWS V14.01,2013-01-21 09:49:00,
2013-01-21 03:54:00,33.5,31.2,30.09,WNW,292,0.0,0.0,91,0.00,,---,0.00,VWS V14.01,2013-01-21 09:54:00,
2013-01-21 03:59:00,33.5,31.2,30.09,WNW,292,0.0,0.0,91,0.00,,---,0.00,VWS V14.01,2013-01-21 09:59:00,
2013-01-21 04:04:00,33.5,31.2,30.09,West,270,0.0,0.0,91,0.00,,---,0.00,VWS V14.01,2013-01-21 10:04:00,
2013-01-21 04:09:00,33.4,31.0,30.09,West,270,0.0,0.0,91,0.00,,---,0.00,VWS V14.01,2013-01-21 10:09:00,
2013-01-21 04:14:00,33.4,31.0,30.09,West,270,0.0,0.0,91,0.00,,---,0.00,VWS V14.01,2013-01-21 10:14:00,
2013-01-21 04:19:00,33.2,30.8,30.09,WNW,292,0.0,0.0,91,0.00,,---,0.00,VWS V14.01,2013-01-21 10:19:00,
2013-01-21 04:24:00,33.2,30.8,30.09,NW,315,0.0,0.0,91,0.00,,---,0.00,VWS V14.01,2013-01-21 10:24:00,
2013-01-21 04:29:00,33.2,30.8,30.09,NW,315,0.0,0.0,91,0.00,,---,0.00,VWS V14.01,2013-01-21 10:29:00,
2013-01-21 04:34:00,33.2,30.8,30.09,NW,315,0.0,0.0,91,0.00,,---,0.00,VWS V14.01,2013-01-21 10:34:00,
2013-01-21 04:39:00,33.2,30.8,30.09,NW,315,0.0,0.0,91,0.00,,---,0.00,VWS V14.01,2013-01-21 10:39:00,
2013-01-21 04:44:00,33.2,30.8,30.09,NW,315,0.0,0.0,91,0.00,,---,0.00,VWS V14.01,2013-01-21 10:44:00,
2013-01-21 04:49:00,33.2,30.8,30.09,NW,315,0.0,0.0,91,0.00,,---,0.00,VWS V14.01,2013-01-21 10:49:00,
2013-01-21 04:54:00,33.2,31.1,30.09,NW,315,0.0,0.0,92,0.00,,---,0.00,VWS V14.01,2013-01-21 10:54:00,
2013-01-21 04:59:00,33.0,30.9,30.09,NW,315,0.0,0.0,92,0.00,,---,0.00,VWS V14.01,2013-01-21 10:59:00,
2013-01-21 05:04:00,33.0,30.9,30.09,NW,315,0.0,0.0,92,0.00,,---,0.00,VWS V14.01,2013-01-21 11:04:00,
2013-01-21 05:09:00,33.0,30.9,30.09,NW,315,0.0,0.0,92,0.00,,---,0.00,VWS V14.01,2013-01-21 11:09:00,
2013-01-21 05:14:00,33.0,30.7,30.09,NW,315,0.0,0.0,91,0.00,,---,0.00,VWS V14.01,2013-01-21 11:14:00,
2013-01-21 05:19:00,32.8,30.5,30.09,NW,315,0.0,0.0,91,0.00,,---,0.00,VWS V14.01,2013-01-21 11:19:00,
2013-01-21 05:24:00,33.0,30.9,30.09,NW,315,0.0,0.0,92,0.00,,---,0.00,VWS V14.01,2013-01-21 11:24:00,
2013-01-21 05:29:00,33.0,30.9,30.09,NW,315,0.0,0.0,92,0.00,,---,0.00,VWS V14.01,2013-01-21 11:29:00,
2013-01-21 05:34:00,33.0,30.9,30.09,NW,315,0.0,0.0,92,0.00,,---,0.00,VWS V14.01,2013-01-21 11:34:00,
2013-01-21 05:39:00,32.8,30.8,30.09,WNW,292,0.0,0.0,92,0.00,,---,0.00,VWS V14.01,2013-01-21 11:39:00,
2013-01-21 05:44:00,32.8,30.8,30.12,SW,225,0.0,0.0,92,0.00,,---,0.00,VWS V14.01,2013-01-21 11:44:00,
2013-01-21 05:49:00,32.8,30.8,30.12,SW,225,0.0,0.0,92,0.00,,---,0.00,VWS V14.01,2013-01-21 11:49:00,
2013-01-21 05:54:00,32.6,30.6,30.12,SW,225,0.0,0.0,92,0.00,,---,0.00,VWS V14.01,2013-01-21 11:54:00,
2013-01-21 05:59:00,32.6,30.6,30.12,SW,225,0.0,0.0,92,0.00,,---,0.00,VWS V14.01,2013-01-21 11:59:00,
2013-01-21 06:04:00,32.6,30.6,30.12,SW,225,0.0,0.0,92,0.00,,---,0.00,VWS V14.01,2013-01-21 12:04:00,
2013-01-21 06:09:00,32.6,30.6,30.12,SW,225,0.0,0.0,92,0.00,,---,0.00,VWS V14.01,2013-01-21 12:09:00,
2013-01-21 06:14:00,32.6,30.6,30.12,SW,225,0.0,0.0,92,0.00,,---,0.00,VWS V14.01,2013-01-21 12:14:00,
2013-01-21 06:19:00,32.6,30.6,30.12,SW,225,0.0,0.0,92,0.00,,---,0.00,VWS V14.01,2013-01-21 12:19:00,
2013-01-21 06:24:00,32.5,30.4,30.12,WSW,248,0.0,0.0,92,0.00,,---,0.00,VWS V14.01,2013-01-21 12:24:00,
2013-01-21 06:29:00,32.5,30.4,30.12,WSW,248,0.0,0.0,92,0.00,,---,0.00,VWS V14.01,2013-01-21 12:29:00,
2013-01-21 06:34:00,32.5,30.4,30.12,WSW,248,0.0,0.0,92,0.00,,---,0.00,VWS V14.01,2013-01-21 12:34:00,
2013-01-21 06:39:00,32.5,30.4,30.12,WSW,248,0.0,0.0,92,0.00,,---,0.00,VWS V14.01,2013-01-21 12:39:00,
2013-01-21 06:45:00,32.5,30.4,30.15,WSW,248,0.0,0.0,92,0.00,,---,0.00,VWS V14.01,2013-01-21 12:45:00,
2013-01-21 06:50:00,32.3,30.2,30.15,WSW,248,0.0,0.0,92,0.00,,---,0.00,VWS V14.01,2013-01-21 12:50:00,
2013-01-21 06:55:00,32.3,30.2,30.15,WSW,248,0.0,0.0,92,0.00,,---,0.00,VWS V14.01,2013-01-21 12:55:00,
2013-01-21 07:00:00,32.5,30.4,30.12,WSW,248,0.0,0.0,92,0.00,,---,0.00,VWS V14.01,2013-01-21 13:00:00,
2013-01-21 07:05:00,32.5,30.4,30.12,WSW,248,0.0,0.0,92,0.00,,---,0.00,VWS V14.01,2013-01-21 13:05:00,
2013-01-21 07:10:00,32.5,30.7,30.12,WSW,248,0.0,0.0,93,0.00,,---,0.00,VWS V14.01,2013-01-21 13:10:00,
2013-01-21 07:15:00,32.5,30.7,30.15,WSW,248,0.0,0.0,93,0.00,,---,0.00,VWS V14.01,2013-01-21 13:15:00,
2013-01-21 07:20:00,32.6,30.8,30.15,WSW,248,0.0,0.0,93,0.00,,---,0.00,VWS V14.01,2013-01-21 13:20:00,
2013-01-21 07:25:00,33.0,31.2,30.15,WSW,248,0.0,0.0,93,0.00,,---,0.00,VWS V14.01,2013-01-21 13:25:00,
2013-01-21 07:30:00,33.2,31.4,30.15,WSW,248,0.0,0.0,93,0.00,,---,0.00,VWS V14.01,2013-01-21 13:30:00,
2013-01-21 07:35:00,33.2,31.4,30.15,WSW,248,0.0,0.0,93,0.00,,---,0.00,VWS V14.01,2013-01-21 13:35:00,
2013-01-21 07:40:00,33.5,31.7,30.15,WSW,248,0.0,0.0,93,0.00,,---,0.00,VWS V14.01,2013-01-21 13:40:00,
2013-01-21 07:45:00,33.9,32.1,30.15,WSW,248,0.0,0.0,93,0.00,,---,0.00,VWS V14.01,2013-01-21 13:45:00,
2013-01-21 07:50:00,34.1,32.3,30.15,NW,315,0.0,0.0,93,0.00,,---,0.00,VWS V14.01,2013-01-21 13:50:00,
2013-01-21 07:55:00,34.6,33.1,30.15,NW,315,0.0,0.0,94,0.00,,---,0.00,VWS V14.01,2013-01-21 13:55:00,
2013-01-21 08:00:00,35.0,33.4,30.15,NW,315,0.0,0.0,94,0.00,,---,0.00,VWS V14.01,2013-01-21 14:00:00,
2013-01-21 08:05:00,35.5,34.0,30.15,NW,315,0.0,0.0,94,0.00,,---,0.00,VWS V14.01,2013-01-21 14:05:00,
2013-01-21 08:10:00,36.2,34.7,30.15,NW,315,0.0,0.0,94,0.00,,---,0.00,VWS V14.01,2013-01-21 14:10:00,
2013-01-21 08:15:00,36.8,35.2,30.15,NW,315,0.0,0.0,94,0.00,,---,0.00,VWS V14.01,2013-01-21 14:15:00,
2013-01-21 08:20:00,37.5,36.2,30.15,NW,315,0.0,0.0,95,0.00,,---,0.00,VWS V14.01,2013-01-21 14:20:00,
2013-01-21 08:25:00,38.4,36.8,30.15,NW,315,0.0,0.0,94,0.00,,---,0.00,VWS V14.01,2013-01-21 14:25:00,
2013-01-21 08:30:00,38.9,37.4,30.15,NW,315,0.0,0.0,94,0.00,,---,0.00,VWS V14.01,2013-01-21 14:30:00,
2013-01-21 08:35:00,39.7,38.3,30.15,NW,315,0.0,0.0,95,0.00,,---,0.00,VWS V14.01,2013-01-21 14:35:00,
2013-01-21 08:40:00,40.6,39.2,30.15,WNW,292,0.0,0.0,95,0.00,,---,0.00,VWS V14.01,2013-01-21 14:40:00,
2013-01-21 08:45:00,41.3,40.0,30.15,WNW,292,0.0,0.0,95,0.00,,---,0.00,VWS V14.01,2013-01-21 14:45:00,
2013-01-21 08:50:00,42.0,40.4,30.15,WNW,292,0.0,0.0,94,0.00,,---,0.00,VWS V14.01,2013-01-21 14:50:00,
2013-01-21 08:55:00,43.3,41.9,30.15,WNW,292,0.0,0.0,95,0.00,,---,0.00,VWS V14.01,2013-01-21 14:55:00,
2013-01-21 09:00:00,44.3,43.0,30.15,WNW,292,0.0,0.0,95,0.00,,---,0.00,VWS V14.01,2013-01-21 15:00:00,
2013-01-21 09:05:00,45.4,44.1,30.15,WNW,292,0.0,0.0,95,0.00,,---,0.00,VWS V14.01,2013-01-21 15:05:00,
2013-01-21 09:10:00,46.9,45.2,30.15,WNW,292,0.0,0.0,94,0.00,,---,0.00,VWS V14.01,2013-01-21 15:10:00,
2013-01-21 09:15:00,48.1,46.5,30.15,WNW,292,0.0,0.0,94,0.00,,---,0.00,VWS V14.01,2013-01-21 15:15:00,
2013-01-21 09:20:00,49.2,47.5,30.15,WNW,292,0.0,0.0,94,0.00,,---,0.00,VWS V14.01,2013-01-21 15:20:00,
2013-01-21 09:25:00,49.9,48.0,30.15,WNW,292,0.0,0.0,93,0.00,,---,0.00,VWS V14.01,2013-01-21 15:25:00,
2013-01-21 09:30:00,51.2,48.3,30.15,WNW,292,0.0,0.0,90,0.00,,---,0.00,VWS V14.01,2013-01-21 15:30:00,
2013-01-21 09:35:00,51.9,48.2,30.15,NNW,338,0.0,0.0,87,0.00,,---,0.00,VWS V14.01,2013-01-21 15:35:00,
2013-01-21 09:40:00,52.4,47.4,30.15,NNW,338,2.5,2.5,83,0.00,,---,0.00,VWS V14.01,2013-01-21 15:40:00,
2013-01-21 09:45:00,52.8,46.1,30.18,NNE,22,0.0,0.0,78,0.00,,---,0.00,VWS V14.01,2013-01-21 15:45:00,
2013-01-21 09:50:00,53.2,46.2,30.18,NNW,338,0.9,1.3,77,0.00,,---,0.00,VWS V14.01,2013-01-21 15:50:00,
2013-01-21 09:55:00,53.9,46.5,30.18,NW,315,4.0,4.0,76,0.00,,---,0.00,VWS V14.01,2013-01-21 15:55:00,
2013-01-21 10:00:00,54.8,45.6,30.18,North,0,3.8,3.8,71,0.00,,---,0.00,VWS V14.01,2013-01-21 16:00:00,
2013-01-21 10:05:00,55.5,47.4,30.18,NE,45,0.0,1.1,74,0.00,,---,0.00,VWS V14.01,2013-01-21 16:05:00,
2013-01-21 10:10:00,56.9,46.5,30.18,NW,315,1.6,2.7,68,0.00,,---,0.00,VWS V14.01,2013-01-21 16:10:00,
2013-01-21 10:15:00,58.2,46.9,30.18,NW,315,1.6,1.6,66,0.00,,---,0.00,VWS V14.01,2013-01-21 16:15:00,
2013-01-21 10:20:00,58.7,45.8,30.18,NNW,338,1.1,1.1,62,0.00,,---,0.00,VWS V14.01,2013-01-21 16:20:00,
2013-01-21 10:25:00,59.1,44.3,30.18,WNW,292,4.0,5.8,58,0.00,,---,0.00,VWS V14.01,2013-01-21 16:25:00,
2013-01-21 10:30:00,59.5,44.7,30.18,NE,45,2.5,3.1,58,0.00,,---,0.00,VWS V14.01,2013-01-21 16:30:00,
2013-01-21 10:35:00,60.4,46.0,30.18,ENE,68,2.5,3.1,59,0.00,,---,0.00,VWS V14.01,2013-01-21 16:35:00,
2013-01-21 10:40:00,60.7,45.4,30.18,NE,45,1.6,2.5,57,0.00,,---,0.00,VWS V14.01,2013-01-21 16:40:00,
2013-01-21 10:45:00,61.3,45.0,30.18,NNE,22,3.8,3.8,55,0.00,,---,0.00,VWS V14.01,2013-01-21 16:45:00,
2013-01-21 10:51:00,60.9,43.7,30.18,North,0,1.1,4.3,53,0.00,,---,0.00,VWS V14.01,2013-01-21 16:51:00,
2013-01-21 10:56:00,62.2,44.8,30.18,NNW,338,1.1,1.1,53,0.00,,---,0.00,VWS V14.01,2013-01-21 16:56:00,
2013-01-21 11:01:00,62.3,44.0,30.18,North,0,4.9,4.9,51,0.00,,---,0.00,VWS V14.01,2013-01-21 17:01:00,
2013-01-21 11:06:00,62.2,42.2,30.18,WNW,292,1.3,1.3,48,0.00,,---,0.00,VWS V14.01,2013-01-21 17:06:00,
2013-01-21 11:11:00,62.2,42.8,30.18,SSW,202,1.3,1.6,49,0.00,,---,0.00,VWS V14.01,2013-01-21 17:11:00,
2013-01-21 11:16:00,62.5,42.0,30.18,NW,315,4.9,6.5,47,0.00,,---,0.00,VWS V14.01,2013-01-21 17:16:00,
2013-01-21 11:21:00,63.4,43.4,30.18,NNE,22,2.9,2.9,48,0.00,,---,0.00,VWS V14.01,2013-01-21 17:21:00,
2013-01-21 11:26:00,64.0,42.8,30.18,NE,45,2.5,2.5,46,0.00,,---,0.00,VWS V14.01,2013-01-21 17:26:00,
2013-01-21 11:31:00,63.8,42.6,30.18,ENE,68,2.5,2.5,46,0.00,,---,0.00,VWS V14.01,2013-01-21 17:31:00,
2013-01-21 11:36:00,64.0,42.2,30.18,NNW,338,3.4,3.4,45,0.00,,---,0.00,VWS V14.01,2013-01-21 17:36:00,
2013-01-21 11:41:00,64.0,42.2,30.18,NNE,22,3.1,4.9,45,0.00,,---,0.00,VWS V14.01,2013-01-21 17:41:00,
2013-01-21 11:46:00,63.8,42.1,30.15,NW,315,5.6,5.8,45,0.00,,---,0.00,VWS V14.01,2013-01-21 17:46:00,
2013-01-21 11:51:00,63.4,41.7,30.15,NNE,22,2.5,2.5,45,0.00,,---,0.00,VWS V14.01,2013-01-21 17:51:00,
2013-01-21 11:56:00,63.6,41.9,30.15,NNE,22,3.1,3.1,45,0.00,,---,0.00,VWS V14.01,2013-01-21 17:56:00,
2013-01-21 12:01:00,63.6,41.9,30.15,NNE,22,3.1,3.8,45,0.00,,---,0.00,VWS V14.01,2013-01-21 18:01:00,
2013-01-21 12:06:00,64.1,42.4,30.15,WNW,292,4.0,4.3,45,0.00,,---,0.00,VWS V14.01,2013-01-21 18:06:00,
2013-01-21 12:11:00,63.2,41.6,30.15,NNE,22,0.0,2.7,45,0.00,,---,0.00,VWS V14.01,2013-01-21 18:11:00,
2013-01-21 12:16:00,63.8,42.6,30.15,NNE,22,3.4,3.4,46,0.00,,---,0.00,VWS V14.01,2013-01-21 18:16:00,
2013-01-21 12:21:00,63.1,41.4,30.15,North,0,4.0,4.0,45,0.00,,---,0.00,VWS V14.01,2013-01-21 18:21:00,
2013-01-21 12:26:00,62.7,41.1,30.15,NNE,22,3.4,3.4,45,0.00,,---,0.00,VWS V14.01,2013-01-21 18:26:00,
2013-01-21 12:31:00,62.3,41.3,30.15,WNW,292,4.3,4.3,46,0.00,,---,0.00,VWS V14.01,2013-01-21 18:31:00,
2013-01-21 12:36:00,62.7,41.1,30.15,NNW,338,3.8,3.8,45,0.00,,---,0.00,VWS V14.01,2013-01-21 18:36:00,
2013-01-21 12:41:00,63.8,42.6,30.15,WNW,292,3.1,3.8,46,0.00,,---,0.00,VWS V14.01,2013-01-21 18:41:00,
2013-01-21 12:46:00,62.9,41.2,30.15,SSE,158,2.7,7.2,45,0.00,,---,0.00,VWS V14.01,2013-01-21 18:46:00,
2013-01-21 12:51:00,62.9,41.2,30.15,NNE,22,2.9,3.4,45,0.00,,---,0.00,VWS V14.01,2013-01-21 18:51:00,
2013-01-21 12:56:00,62.9,41.2,30.15,WNW,292,3.6,3.8,45,0.00,,---,0.00,VWS V14.01,2013-01-21 18:56:00,
2013-01-21 13:01:00,63.1,40.8,30.15,ENE,68,2.2,3.8,44,0.00,,---,0.00,VWS V14.01,2013-01-21 19:01:00,
2013-01-21 13:06:00,63.6,41.9,30.15,WNW,292,5.8,5.8,45,0.00,,---,0.00,VWS V14.01,2013-01-21 19:06:00,
2013-01-21 13:11:00,64.1,42.4,30.15,NNW,338,2.5,6.0,45,0.00,,---,0.00,VWS V14.01,2013-01-21 19:11:00,
2013-01-21 13:16:00,64.1,41.8,30.15,WNW,292,3.6,4.7,44,0.00,,---,0.00,VWS V14.01,2013-01-21 19:16:00,
2013-01-21 13:21:00,63.8,40.9,30.15,NNW,338,1.3,4.3,43,0.00,,---,0.00,VWS V14.01,2013-01-21 19:21:00,
2013-01-21 13:26:00,62.5,40.3,30.15,North,0,4.0,4.0,44,0.00,,---,0.00,VWS V14.01,2013-01-21 19:26:00,
2013-01-21 13:31:00,62.0,39.8,30.15,NNW,338,3.6,4.0,44,0.00,,---,0.00,VWS V14.01,2013-01-21 19:31:00,
2013-01-21 13:36:00,61.6,40.1,30.15,NNE,22,3.4,3.4,45,0.00,,---,0.00,VWS V14.01,2013-01-21 19:36:00,
2013-01-21 13:41:00,63.2,41.6,30.15,North,0,2.5,4.9,45,0.00,,---,0.00,VWS V14.01,2013-01-21 19:41:00,
2013-01-21 13:46:00,63.1,40.8,30.15,NNE,22,4.0,6.3,44,0.00,,---,0.00,VWS V14.01,2013-01-21 19:46:00,
2013-01-21 13:51:00,63.6,41.3,30.15,NNE,22,2.7,3.1,44,0.00,,---,0.00,VWS V14.01,2013-01-21 19:51:00,
2013-01-21 13:56:00,63.2,39.8,30.15,WNW,292,3.8,3.8,42,0.00,,---,0.00,VWS V14.01,2013-01-21 19:56:00,
2013-01-21 14:01:00,63.2,39.8,30.15,NNW,338,5.6,6.0,42,0.00,,---,0.00,VWS V14.01,2013-01-21 20:01:00,
2013-01-21 14:06:00,63.2,39.8,30.15,NNE,22,1.3,3.4,42,0.00,,---,0.00,VWS V14.01,2013-01-21 20:06:00,
2013-01-21 14:11:00,63.2,39.8,30.15,WNW,292,2.5,5.8,42,0.00,,---,0.00,VWS V14.01,2013-01-21 20:11:00,
2013-01-21 14:16:00,62.9,39.5,30.15,North,0,4.0,4.0,42,0.00,,---,0.00,VWS V14.01,2013-01-21 20:16:00,
2013-01-21 14:21:00,62.9,39.5,30.15,NW,315,4.0,5.6,42,0.00,,---,0.00,VWS V14.01,2013-01-21 20:21:00,
2013-01-21 14:26:00,62.7,39.3,30.15,NNE,22,1.6,4.0,42,0.00,,---,0.00,VWS V14.01,2013-01-21 20:26:00,
2013-01-21 14:31:00,62.9,38.8,30.15,North,0,3.6,5.4,41,0.00,,---,0.00,VWS V14.01,2013-01-21 20:31:00,
2013-01-21 14:36:00,62.7,38.0,30.15,WNW,292,4.7,4.7,40,0.00,,---,0.00,VWS V14.01,2013-01-21 20:36:00,
2013-01-21 14:41:00,62.0,37.4,30.15,North,0,3.8,3.8,40,0.00,,---,0.00,VWS V14.01,2013-01-21 20:41:00,
2013-01-21 14:46:00,62.3,38.4,30.15,NNW,338,4.3,4.3,41,0.00,,---,0.00,VWS V14.01,2013-01-21 20:46:00,
2013-01-21 14:51:00,61.8,38.5,30.15,NW,315,2.7,2.9,42,0.00,,---,0.00,VWS V14.01,2013-01-21 20:51:00,
2013-01-21 14:56:00,61.1,37.2,30.15,NNW,338,1.6,3.8,41,0.00,,---,0.00,VWS V14.01,2013-01-21 20:56:00,
2013-01-21 15:01:00,60.7,36.9,30.15,NNE,22,1.6,3.1,41,0.00,,---,0.00,VWS V14.01,2013-01-21 21:01:00,
2013-01-21 15:06:00,60.9,37.7,30.15,NNW,338,3.1,4.3,42,0.00,,---,0.00,VWS V14.01,2013-01-21 21:06:00,
2013-01-21 15:11:00,60.9,37.7,30.15,NW,315,2.9,4.3,42,0.00,,---,0.00,VWS V14.01,2013-01-21 21:11:00,
2013-01-21 15:16:00,60.2,37.0,30.18,NNW,338,1.3,3.1,42,0.00,,---,0.00,VWS V14.01,2013-01-21 21:16:00,
2013-01-21 15:21:00,59.5,37.0,30.18,NNE,22,3.8,3.8,43,0.00,,---,0.00,VWS V14.01,2013-01-21 21:21:00,
2013-01-21 15:26:00,59.1,37.2,30.18,WNW,292,2.7,3.4,44,0.00,,---,0.00,VWS V14.01,2013-01-21 21:26:00,
2013-01-21 15:31:00,58.9,37.6,30.18,North,0,2.7,3.6,45,0.00,,---,0.00,VWS V14.01,2013-01-21 21:31:00,
2013-01-21 15:36:00,58.7,37.5,30.18,NW,315,5.8,5.8,45,0.00,,---,0.00,VWS V14.01,2013-01-21 21:36:00,
2013-01-21 15:42:00,58.4,37.1,30.18,NNW,338,5.6,5.6,45,0.00,,---,0.00,VWS V14.01,2013-01-21 21:42:00,
2013-01-21 15:47:00,58.2,37.0,30.18,NNW,338,1.6,2.7,45,0.00,,---,0.00,VWS V14.01,2013-01-21 21:47:00,
2013-01-21 15:52:00,57.8,36.7,30.18,North,0,2.7,7.6,45,0.00,,---,0.00,VWS V14.01,2013-01-21 21:52:00,
2013-01-21 15:57:00,57.7,36.5,30.18,North,0,3.6,4.0,45,0.00,,---,0.00,VWS V14.01,2013-01-21 21:57:00,
2013-01-21 16:02:00,57.7,36.5,30.18,North,0,2.5,2.9,45,0.00,,---,0.00,VWS V14.01,2013-01-21 22:02:00,
2013-01-21 16:07:00,57.5,36.9,30.18,North,0,3.6,3.6,46,0.00,,---,0.00,VWS V14.01,2013-01-21 22:07:00,
2013-01-21 16:12:00,57.3,36.2,30.18,NNW,338,2.7,4.3,45,0.00,,---,0.00,VWS V14.01,2013-01-21 22:12:00,
2013-01-21 16:17:00,56.6,36.1,30.18,North,0,5.8,5.8,46,0.00,,---,0.00,VWS V14.01,2013-01-21 22:17:00,
2013-01-21 16:22:00,56.2,35.7,30.18,North,0,2.5,2.7,46,0.00,,---,0.00,VWS V14.01,2013-01-21 22:22:00,
2013-01-21 16:27:00,55.7,35.8,30.18,North,0,3.4,3.4,47,0.00,,---,0.00,VWS V14.01,2013-01-21 22:27:00,
2013-01-21 16:32:00,55.3,34.9,30.18,NNW,338,4.3,6.5,46,0.00,,---,0.00,VWS V14.01,2013-01-21 22:32:00,
2013-01-21 16:37:00,55.0,35.1,30.18,NW,315,2.5,2.5,47,0.00,,---,0.00,VWS V14.01,2013-01-21 22:37:00,
2013-01-21 16:42:00,54.6,34.8,30.18,NNW,338,1.3,2.2,47,0.00,,---,0.00,VWS V14.01,2013-01-21 22:42:00,
2013-01-21 16:47:00,54.4,35.2,30.18,North,0,2.9,2.9,48,0.00,,---,0.00,VWS V14.01,2013-01-21 22:47:00,
2013-01-21 16:52:00,54.1,34.8,30.18,NNW,338,2.2,2.2,48,0.00,,---,0.00,VWS V14.01,2013-01-21 22:52:00,
2013-01-21 16:57:00,53.9,35.2,30.18,NNW,338,1.3,2.7,49,0.00,,---,0.00,VWS V14.01,2013-01-21 22:57:00,
2013-01-21 17:02:00,53.5,34.8,30.18,NW,315,2.2,2.5,49,0.00,,---,0.00,VWS V14.01,2013-01-21 23:02:00,
2013-01-21 17:07:00,53.0,34.9,30.18,NW,315,0.0,0.0,50,0.00,,---,0.00,VWS V14.01,2013-01-21 23:07:00,
2013-01-21 17:12:00,52.6,35.0,30.18,WNW,292,0.9,0.9,51,0.00,,---,0.00,VWS V14.01,2013-01-21 23:12:00,
2013-01-21 17:17:00,51.9,34.8,30.18,NW,315,0.0,0.9,52,0.00,,---,0.00,VWS V14.01,2013-01-21 23:17:00,
2013-01-21 17:22:00,51.4,34.8,30.18,NW,315,1.1,1.6,53,0.00,,---,0.00,VWS V14.01,2013-01-21 23:22:00,
2013-01-21 17:27:00,50.8,34.8,30.18,NW,315,0.0,0.0,54,0.00,,---,0.00,VWS V14.01,2013-01-21 23:27:00,
2013-01-21 17:32:00,50.5,34.9,30.18,NW,315,1.3,1.6,55,0.00,,---,0.00,VWS V14.01,2013-01-21 23:32:00,
2013-01-21 17:37:00,50.1,34.6,30.18,NW,315,0.0,0.0,55,0.00,,---,0.00,VWS V14.01,2013-01-21 23:37:00,
2013-01-21 17:42:00,49.6,35.0,30.18,NW,315,0.0,0.0,57,0.00,,---,0.00,VWS V14.01,2013-01-21 23:42:00,
2013-01-21 17:47:00,49.2,35.1,30.18,NW,315,0.0,0.0,58,0.00,,---,0.00,VWS V14.01,2013-01-21 23:47:00,
2013-01-21 17:52:00,48.7,35.0,30.18,NW,315,0.0,0.0,59,0.00,,---,0.00,VWS V14.01,2013-01-21 23:52:00,
2013-01-21 17:57:00,48.3,35.5,30.18,NW,315,0.0,0.0,61,0.00,,---,0.00,VWS V14.01,2013-01-21 23:57:00,
2013-01-21 18:02:00,48.1,35.3,30.18,NW,315,0.0,0.0,61,0.00,,---,0.00,VWS V14.01,2013-01-22 00:02:00,
2013-01-21 18:07:00,47.8,35.4,30.18,NW,315,0.0,0.0,62,0.00,,---,0.00,VWS V14.01,2013-01-22 00:07:00,
2013-01-21 18:12:00,47.6,35.2,30.18,NW,315,0.0,0.0,62,0.00,,---,0.00,VWS V14.01,2013-01-22 00:12:00,
2013-01-21 18:17:00,47.2,35.3,30.18,SSE,158,1.3,1.3,63,0.00,,---,0.00,VWS V14.01,2013-01-22 00:17:00,
2013-01-21 18:22:00,46.9,35.3,30.18,SSE,158,0.0,0.0,64,0.00,,---,0.00,VWS V14.01,2013-01-22 00:22:00,
2013-01-21 18:27:00,46.3,34.8,30.18,SSW,202,0.0,0.0,64,0.00,,---,0.00,VWS V14.01,2013-01-22 00:27:00,
2013-01-21 18:32:00,46.0,35.6,30.18,SSW,202,0.0,0.0,67,0.00,,---,0.00,VWS V14.01,2013-01-22 00:32:00,
2013-01-21 18:37:00,45.6,35.3,30.18,SSW,202,0.0,0.0,67,0.00,,---,0.00,VWS V14.01,2013-01-22 00:37:00,
2013-01-21 18:42:00,45.2,34.6,30.18,WNW,292,0.0,0.0,66,0.00,,---,0.00,VWS V14.01,2013-01-22 00:42:00,
2013-01-21 18:48:00,45.1,35.2,30.18,WNW,292,0.0,0.0,68,0.00,,---,0.00,VWS V14.01,2013-01-22 00:48:00,
2013-01-21 18:53:00,44.7,34.8,30.18,WNW,292,0.0,0.0,68,0.00,,---,0.00,VWS V14.01,2013-01-22 00:53:00,
2013-01-21 18:58:00,44.5,34.6,30.18,WNW,292,0.0,0.0,68,0.00,,---,0.00,VWS V14.01,2013-01-22 00:58:00,
2013-01-21 19:03:00,44.3,34.8,30.18,WNW,292,0.0,0.0,69,0.00,,---,0.00,VWS V14.01,2013-01-22 01:03:00,
2013-01-21 19:08:00,44.0,34.5,30.18,WNW,292,0.0,0.0,69,0.00,,---,0.00,VWS V14.01,2013-01-22 01:08:00,
2013-01-21 19:13:00,43.8,34.3,30.18,WNW,292,0.0,0.0,69,0.00,,---,0.00,VWS V14.01,2013-01-22 01:13:00,
2013-01-21 19:18:00,43.6,34.5,30.18,WNW,292,0.0,0.0,70,0.00,,---,0.00,VWS V14.01,2013-01-22 01:18:00,
2013-01-21 19:23:00,43.4,34.7,30.18,WNW,292,0.0,0.0,71,0.00,,---,0.00,VWS V14.01,2013-01-22 01:23:00,
2013-01-21 19:28:00,43.3,34.5,30.18,WNW,292,0.0,0.0,71,0.00,,---,0.00,VWS V14.01,2013-01-22 01:28:00,
2013-01-21 19:33:00,43.1,34.3,30.18,WNW,292,0.0,0.0,71,0.00,,---,0.00,VWS V14.01,2013-01-22 01:33:00,
2013-01-21 19:38:00,42.9,34.2,30.18,WNW,292,0.0,0.0,71,0.00,,---,0.00,VWS V14.01,2013-01-22 01:38:00,
2013-01-21 19:43:00,42.7,34.0,30.18,WNW,292,0.0,0.0,71,0.00,,---,0.00,VWS V14.01,2013-01-22 01:43:00,
2013-01-21 19:48:00,42.5,33.8,30.18,West,270,0.0,0.0,71,0.00,,---,0.00,VWS V14.01,2013-01-22 01:48:00,
2013-01-21 19:53:00,42.2,34.2,30.18,West,270,0.0,0.0,73,0.00,,---,0.00,VWS V14.01,2013-01-22 01:53:00,
2013-01-21 19:58:00,42.0,34.0,30.18,West,270,0.0,0.0,73,0.00,,---,0.00,VWS V14.01,2013-01-22 01:58:00,
2013-01-21 20:03:00,41.8,33.8,30.18,West,270,0.0,0.0,73,0.00,,---,0.00,VWS V14.01,2013-01-22 02:03:00,
2013-01-21 20:08:00,41.6,33.6,30.18,West,270,0.0,0.0,73,0.00,,---,0.00,VWS V14.01,2013-01-22 02:08:00,
2013-01-21 20:13:00,41.5,33.8,30.18,West,270,0.0,0.0,74,0.00,,---,0.00,VWS V14.01,2013-01-22 02:13:00,
2013-01-21 20:18:00,41.1,33.5,30.18,West,270,0.0,0.0,74,0.00,,---,0.00,VWS V14.01,2013-01-22 02:18:00,
2013-01-21 20:23:00,40.9,33.0,30.18,WNW,292,0.0,0.0,73,0.00,,---,0.00,VWS V14.01,2013-01-22 02:23:00,
2013-01-21 20:28:00,40.7,33.4,30.18,WSW,248,0.0,0.0,75,0.00,,---,0.00,VWS V14.01,2013-01-22 02:28:00,
2013-01-21 20:33:00,40.6,33.3,30.18,WSW,248,0.0,0.0,75,0.00,,---,0.00,VWS V14.01,2013-01-22 02:33:00,
2013-01-21 20:38:00,40.4,33.4,30.18,WSW,248,0.0,0.0,76,0.00,,---,0.00,VWS V14.01,2013-01-22 02:38:00,
2013-01-21 20:43:00,40.2,32.9,30.18,WSW,248,0.0,0.0,75,0.00,,---,0.00,VWS V14.01,2013-01-22 02:43:00,
2013-01-21 20:48:00,39.8,32.9,30.18,WNW,292,0.0,0.0,76,0.00,,---,0.00,VWS V14.01,2013-01-22 02:48:00,
2013-01-21 20:53:00,39.7,32.7,30.18,WNW,292,0.0,0.0,76,0.00,,---,0.00,VWS V14.01,2013-01-22 02:53:00,
2013-01-21 20:58:00,39.5,32.9,30.18,WNW,292,0.0,0.0,77,0.00,,---,0.00,VWS V14.01,2013-01-22 02:58:00,
2013-01-21 21:03:00,39.5,32.9,30.18,WNW,292,0.0,0.0,77,0.00,,---,0.00,VWS V14.01,2013-01-22 03:03:00,
2013-01-21 21:08:00,39.3,32.7,30.18,WNW,292,0.0,0.0,77,0.00,,---,0.00,VWS V14.01,2013-01-22 03:08:00,
2013-01-21 21:13:00,39.1,32.5,30.18,WNW,292,0.0,0.0,77,0.00,,---,0.00,VWS V14.01,2013-01-22 03:13:00,
2013-01-21 21:18:00,39.3,33.3,30.18,WNW,292,0.0,0.0,79,0.00,,---,0.00,VWS V14.01,2013-01-22 03:18:00,
2013-01-21 21:23:00,39.1,32.8,30.18,WNW,292,0.0,0.0,78,0.00,,---,0.00,VWS V14.01,2013-01-22 03:23:00,
2013-01-21 21:28:00,39.3,33.0,30.18,WNW,292,0.0,0.0,78,0.00,,---,0.00,VWS V14.01,2013-01-22 03:28:00,
2013-01-21 21:33:00,39.1,33.2,30.18,WNW,292,0.0,0.0,79,0.00,,---,0.00,VWS V14.01,2013-01-22 03:33:00,
2013-01-21 21:38:00,38.9,33.0,30.18,WNW,292,0.0,0.0,79,0.00,,---,0.00,VWS V14.01,2013-01-22 03:38:00,
2013-01-21 21:43:00,38.9,33.0,30.18,WNW,292,0.0,0.0,79,0.00,,---,0.00,VWS V14.01,2013-01-22 03:43:00,
2013-01-21 21:48:00,38.8,32.8,30.18,WNW,292,0.0,0.0,79,0.00,,---,0.00,VWS V14.01,2013-01-22 03:48:00,
2013-01-21 21:53:00,38.6,32.6,30.18,WNW,292,0.0,0.0,79,0.00,,---,0.00,VWS V14.01,2013-01-22 03:53:00,
2013-01-21 21:58:00,38.4,32.2,30.18,WNW,292,0.0,0.0,78,0.00,,---,0.00,VWS V14.01,2013-01-22 03:58:00,
2013-01-21 22:03:00,38.4,32.5,30.18,WNW,292,0.0,0.0,79,0.00,,---,0.00,VWS V14.01,2013-01-22 04:03:00,
2013-01-21 22:08:00,38.4,32.5,30.18,WNW,292,0.0,0.0,79,0.00,,---,0.00,VWS V14.01,2013-01-22 04:08:00,
2013-01-21 22:13:00,38.2,32.6,30.18,WNW,292,0.0,0.0,80,0.00,,---,0.00,VWS V14.01,2013-01-22 04:13:00,
2013-01-21 22:18:00,38.0,32.1,30.18,WNW,292,0.0,0.0,79,0.00,,---,0.00,VWS V14.01,2013-01-22 04:18:00,
2013-01-21 22:23:00,38.0,32.1,30.18,WNW,292,0.0,0.0,79,0.00,,---,0.00,VWS V14.01,2013-01-22 04:23:00,
2013-01-21 22:28:00,37.9,31.9,30.21,WNW,292,0.0,0.0,79,0.00,,---,0.00,VWS V14.01,2013-01-22 04:28:00,
2013-01-21 22:33:00,37.9,32.2,30.21,WNW,292,0.0,0.0,80,0.00,,---,0.00,VWS V14.01,2013-01-22 04:33:00,
2013-01-21 22:38:00,37.9,32.2,30.21,WNW,292,0.0,0.0,80,0.00,,---,0.00,VWS V14.01,2013-01-22 04:38:00,
2013-01-21 22:43:00,37.7,32.4,30.18,NNW,338,0.0,0.0,81,0.00,,---,0.00,VWS V14.01,2013-01-22 04:43:00,
2013-01-21 22:48:00,37.9,32.6,30.18,NW,315,0.0,0.0,81,0.00,,---,0.00,VWS V14.01,2013-01-22 04:48:00,
2013-01-21 22:53:00,37.9,32.9,30.18,SW,225,0.0,0.0,82,0.00,,---,0.00,VWS V14.01,2013-01-22 04:53:00,
2013-01-21 22:58:00,37.7,32.7,30.18,SW,225,0.0,0.0,82,0.00,,---,0.00,VWS V14.01,2013-01-22 04:58:00,
2013-01-21 23:00:00,37.7,32.7,30.18,SW,225,0.0,0.0,82,0.00,,---,0.00,VWS V14.01,2013-01-22 05:00:00,
2013-01-21 23:01:00,37.7,32.7,30.18,SW,225,0.0,0.0,82,0.00,,---,0.00,VWS V14.01,2013-01-22 05:01:00,
2013-01-21 23:06:00,37.5,32.5,30.18,West,270,0.0,0.0,82,0.00,,---,0.00,VWS V14.01,2013-01-22 05:06:00,
2013-01-21 23:11:00,37.3,32.6,30.18,West,270,0.0,0.0,83,0.00,,---,0.00,VWS V14.01,2013-01-22 05:11:00,
2013-01-21 23:16:00,37.1,32.5,30.21,West,270,0.0,0.0,83,0.00,,---,0.00,VWS V14.01,2013-01-22 05:16:00,
2013-01-21 23:21:00,37.1,32.5,30.21,West,270,0.0,0.0,83,0.00,,---,0.00,VWS V14.01,2013-01-22 05:21:00,
2013-01-21 23:26:00,37.1,32.5,30.21,West,270,0.0,0.0,83,0.00,,---,0.00,VWS V14.01,2013-01-22 05:26:00,
2013-01-21 23:32:00,37.0,32.3,30.21,West,270,0.0,0.0,83,0.00,,---,0.00,VWS V14.01,2013-01-22 05:32:00,
2013-01-21 23:37:00,36.8,32.1,30.21,WNW,292,0.0,0.0,83,0.00,,---,0.00,VWS V14.01,2013-01-22 05:37:00,
2013-01-21 23:42:00,36.8,32.1,30.21,WNW,292,0.0,0.0,83,0.00,,---,0.00,VWS V14.01,2013-01-22 05:42:00,
2013-01-21 23:47:00,36.6,31.9,30.18,WNW,292,0.0,0.0,83,0.00,,---,0.00,VWS V14.01,2013-01-22 05:47:00,
2013-01-21 23:52:00,36.6,31.9,30.18,WNW,292,0.0,0.0,83,0.00,,---,0.00,VWS V14.01,2013-01-22 05:52:00,
2013-01-21 23:57:00,36.4,32.1,30.18,WNW,292,0.0,0.0,84,0.00,,---,0.00,VWS V14.01,2013-01-22 05:57:00,